Change the Weather History Date:

Friday, November 16, 2012

  Actual Average Record
Temperature  
Mean Temperature 37 °F 41 °F  
Max Temperature 49 °F 48 °F 71 °F (1990)
Min Temperature 24 °F 33 °F 6 °F (1933)
Degree Days  
Heating Degree Days 28 24  
Month to date heating degree days 378 350  
Since 1 July heating degree days 821 967  
Cooling Degree Days 0 0  
Month to date cooling degree days 0 0  
Year to date cooling degree days 953 569  
Moisture  
Dew Point 27 °F    
Average Humidity 69    
Maximum Humidity 92    
Minimum Humidity 46    
Precipitation  
Precipitation T in 0.12 in 1.75 in (1926)
Month to date precipitation 1.07 1.87  
Year to date precipitation 27.20 33.59  
Snow  
Snow 0.00 in 0.20 in 3.30 in (1997)
Month to date snowfall T 3.0  
Since 1 July snowfall T 3.4  
Since 1 September snowfall T 3.4  
Snow Depth 0.00 in    
Sea Level Pressure  
Sea Level Pressure 30.42 in    
Wind  
Wind Speed 3 mph (NW)    
Max Wind Speed 12 mph    
Max Gust Speed 14 mph    
Visibility 10 miles    
Events      
T = Trace of Precipitation, MM = Missing Value Source: NWS Daily Summary

Daily Weather History Graph

Daily Weather History Graph

Search for Another Location

Airport or City:

Trip Planner

Search our weather history database for the weather conditions in past years. The results will help you decide how hot, cold, wet, or windy it might be!

Date:

Astronomy

Nov. 16, 2012 Rise Set
Actual Time 6:58 AM EST 4:39 PM EST
Civil Twilight 6:28 AM EST 5:09 PM EST
Nautical Twilight 5:53 AM EST 5:44 PM EST
Astronomical Twilight 5:20 AM EST 6:18 PM EST
Moon 9:52 AM EST (11/16) 7:35 PM EST (11/16)
Length of Visible Light 10h 41m
Length of Day
9h 40m
Waxing Crescent, 11% of the Moon is Illuminated
Nov 16
Waxing Crescent
Nov 20
First Quarter
Nov 28
Full
Dec 6
Last Quarter
Dec 13
New

Hourly Weather History & Observations

Time (EST) Temp. Windchill Dew Point Humidity Pressure Visibility Wind Dir Wind Speed Gust Speed Precip Events Conditions
12:54 AM 27.0 °F - 23.0 °F 85% 30.34 in 10.0 mi Calm Calm - N/A   Clear
1:54 AM 27.0 °F - 24.1 °F 89% 30.35 in 10.0 mi Calm Calm - N/A   Clear
2:54 AM 25.0 °F - 21.9 °F 88% 30.35 in 10.0 mi Calm Calm - N/A   Clear
3:54 AM 26.1 °F - 21.9 °F 84% 30.35 in 10.0 mi Calm Calm - N/A   Clear
4:54 AM 25.0 °F - 21.9 °F 88% 30.36 in 10.0 mi Calm Calm - N/A   Clear
5:54 AM 25.0 °F - 21.9 °F 88% 30.38 in 10.0 mi Calm Calm - N/A   Scattered Clouds
6:54 AM 26.1 °F - 23.0 °F 88% 30.38 in 10.0 mi Calm Calm - N/A   Overcast
7:54 AM 27.0 °F - 24.1 °F 89% 30.40 in 10.0 mi Calm Calm - N/A   Mostly Cloudy
8:54 AM 35.1 °F - 28.9 °F 78% 30.41 in 10.0 mi Calm Calm - N/A   Mostly Cloudy
9:54 AM 39.0 °F - 28.9 °F 67% 30.42 in 10.0 mi Calm Calm - N/A   Mostly Cloudy
10:54 AM 43.0 °F 38.2 °F 28.9 °F 58% 30.42 in 10.0 mi NNW 8.1 mph - N/A   Mostly Cloudy
11:54 AM 45.0 °F 40.6 °F 28.0 °F 52% 30.40 in 10.0 mi NNW 8.1 mph - N/A   Scattered Clouds
12:54 PM 46.9 °F - 28.0 °F 48% 30.40 in 10.0 mi NNW 9.2 mph - N/A   Scattered Clouds
1:54 PM 48.0 °F - 28.0 °F 46% 30.40 in 10.0 mi Variable 6.9 mph - N/A   Scattered Clouds
2:54 PM 48.0 °F - 28.0 °F 46% 30.40 in 10.0 mi NW 5.8 mph - N/A   Scattered Clouds
3:54 PM 46.0 °F 41.9 °F 30.0 °F 54% 30.43 in 10.0 mi WNW 8.1 mph - N/A   Scattered Clouds
4:54 PM 41.0 °F 38.0 °F 30.0 °F 65% 30.44 in 10.0 mi NW 4.6 mph - N/A   Scattered Clouds
5:54 PM 39.0 °F 34.8 °F 30.0 °F 70% 30.46 in 10.0 mi NW 5.8 mph - N/A   Clear
6:54 PM 37.9 °F 35.5 °F 30.9 °F 76% 30.47 in 10.0 mi NW 3.5 mph - N/A   Clear
7:54 PM 35.1 °F - 28.9 °F 78% 30.49 in 10.0 mi Calm Calm - N/A   Clear
8:54 PM 33.1 °F - 28.9 °F 85% 30.51 in 10.0 mi Calm Calm - N/A   Clear
9:54 PM 32.0 °F - 27.0 °F 82% 30.51 in 10.0 mi Calm Calm - N/A   Clear
10:54 PM 30.9 °F - 27.0 °F 85% 30.51 in 10.0 mi Calm Calm - N/A   Clear
11:54 PM 30.0 °F - 27.0 °F 88% 30.51 in 8.0 mi Calm Calm - N/A   Clear